| time (UTC) | temp F | wind direction | speed MPH | gust MPH | rain 1hr in | rain 24hr in | rain mn in | humidity % | barometer mb |
| 20260508204506 | 40 | 360 | 0.0 | 0.0 | 0.00 | 0.00 | 0.00 | 68 | 1024.4 |
| 20260508203005 | 41 | 360 | 0.0 | 0.0 | 0.00 | 0.00 | 0.00 | 65 | 1024.3 |
| 20260508201550 | 43 | 360 | 0.0 | 0.0 | 0.00 | 0.00 | 0.00 | 62 | 1024.1 |
| 20260508200105 | 45 | 360 | 0.0 | 0.0 | 0.00 | 0.00 | 0.00 | 59 | 1024.0 |
| 20260508194549 | 47 | 360 | 0.0 | 0.0 | 0.00 | 0.00 | 0.00 | 54 | 1023.9 |
| 20260508193058 | 49 | 360 | 0.0 | 0.0 | 0.00 | 0.00 | 0.00 | 49 | 1023.7 |
| 20260508191545 | 51 | 134 | 0.0 | 0.0 | 0.00 | 0.00 | 0.00 | 44 | 1023.7 |
| 20260508190044 | 52 | 360 | 0.0 | 2.0 | 0.00 | 0.00 | 0.00 | 40 | 1023.5 |
| 20260508184542 | 52 | 360 | 0.0 | 5.0 | 0.00 | 0.00 | 0.00 | 40 | 1023.3 |
| 20260508183058 | 54 | 360 | 0.0 | 5.0 | 0.00 | 0.00 | 0.00 | 38 | 1023.2 |
| 20260508181528 | 54 | 360 | 1.0 | 6.0 | 0.00 | 0.00 | 0.00 | 35 | 1023.0 |
| 20260508180031 | 55 | 360 | 1.0 | 6.0 | 0.00 | 0.00 | 0.00 | 33 | 1023.0 |
| 20260508174527 | 56 | 360 | 2.0 | 6.0 | 0.00 | 0.00 | 0.00 | 33 | 1022.9 |
| 20260508173028 | 56 | 360 | 1.0 | 7.0 | 0.00 | 0.00 | 0.00 | 33 | 1022.7 |
| 20260508171534 | 57 | 360 | 1.0 | 8.0 | 0.00 | 0.00 | 0.00 | 31 | 1022.7 |
| 20260508170027 | 58 | 360 | 2.0 | 11.0 | 0.00 | 0.00 | 0.00 | 30 | 1022.6 |
| 20260508164525 | 58 | 360 | 2.0 | 11.0 | 0.00 | 0.00 | 0.00 | 29 | 1022.4 |
| 20260508163026 | 59 | 113 | 2.0 | 10.0 | 0.00 | 0.00 | 0.00 | 28 | 1022.2 |
| 20260508161509 | 59 | 360 | 2.0 | 12.0 | 0.00 | 0.00 | 0.00 | 27 | 1022.3 |
| 20260508160004 | 59 | 360 | 2.0 | 10.0 | 0.00 | 0.00 | 0.00 | 27 | 1022.3 |
| 20260508154549 | 59 | 360 | 4.0 | 14.0 | 0.00 | 0.00 | 0.00 | 26 | 1022.2 |
| 20260508153048 | 60 | 157 | 3.0 | 9.0 | 0.00 | 0.00 | 0.00 | 26 | 1022.2 |
| 20260508151548 | 60 | 360 | 1.0 | 7.0 | 0.00 | 0.00 | 0.00 | 26 | 1022.4 |
| 20260508144548 | 60 | 360 | 2.0 | 8.0 | 0.00 | 0.00 | 0.00 | 26 | 1022.6 |
| 20260508143049 | 61 | 360 | 4.0 | 10.0 | 0.00 | 0.00 | 0.00 | 26 | 1022.7 |
| 20260508141554 | 60 | 360 | 4.0 | 10.0 | 0.00 | 0.00 | 0.00 | 27 | 1022.7 |
| 20260508140051 | 60 | 360 | 3.0 | 13.0 | 0.00 | 0.00 | 0.00 | 25 | 1022.9 |
| 20260508134529 | 60 | 360 | 4.0 | 11.0 | 0.00 | 0.00 | 0.00 | 30 | 1022.9 |
| 20260508133024 | 61 | 360 | 1.0 | 10.0 | 0.00 | 0.00 | 0.00 | 32 | 1022.8 |
| 20260508131504 | 60 | 360 | 4.0 | 10.0 | 0.00 | 0.00 | 0.00 | 33 | 1022.7 |
| 20260508130005 | 60 | 360 | 1.0 | 9.0 | 0.00 | 0.00 | 0.00 | 33 | 1022.8 |
| 20260508124544 | 61 | 360 | 2.0 | 10.0 | 0.00 | 0.00 | 0.00 | 33 | 1022.9 |
| 20260508123044 | 61 | 360 | 0.0 | 5.0 | 0.00 | 0.00 | 0.00 | 33 | 1022.8 |
| 20260508121532 | 61 | 360 | 0.0 | 12.0 | 0.00 | 0.00 | 0.00 | 33 | 1022.9 |
| 20260508120031 | 61 | 360 | 1.0 | 8.0 | 0.00 | 0.00 | 0.00 | 33 | 1022.9 |
| 20260508114534 | 61 | 360 | 2.0 | 6.0 | 0.00 | 0.00 | 0.00 | 33 | 1022.9 |
| 20260508113044 | 59 | 360 | 2.0 | 10.0 | 0.00 | 0.00 | 0.00 | 33 | 1023.0 |
| 20260508111526 | 59 | 169 | 0.0 | 8.0 | 0.00 | 0.00 | 0.00 | 36 | 1023.1 |
| 20260508110025 | 59 | 63 | 0.0 | 8.0 | 0.00 | 0.00 | 0.00 | 36 | 1023.1 |
| 20260508104523 | 59 | 76 | 1.0 | 9.0 | 0.00 | 0.00 | 0.00 | 37 | 1023.2 |
| 20260508103019 | 58 | 360 | 1.0 | 11.0 | 0.00 | 0.00 | 0.00 | 39 | 1023.2 |
| 20260508101507 | 58 | 360 | 1.0 | 12.0 | 0.00 | 0.00 | 0.00 | 39 | 1023.3 |
| 20260508100008 | 58 | 360 | 1.0 | 8.0 | 0.00 | 0.00 | 0.00 | 41 | 1023.1 |
| 20260508094501 | 57 | 135 | 2.0 | 9.0 | 0.00 | 0.00 | 0.00 | 43 | 1023.2 |
| 20260508093058 | 56 | 360 | 2.0 | 13.0 | 0.00 | 0.00 | 0.00 | 38 | 1023.1 |
| 20260508091554 | 55 | 360 | 4.0 | 12.0 | 0.00 | 0.00 | 0.00 | 38 | 1023.2 |
| 20260508090052 | 55 | 360 | 4.0 | 9.0 | 0.00 | 0.00 | 0.00 | 45 | 1023.2 |
| 20260508084548 | 55 | 360 | 2.0 | 11.0 | 0.00 | 0.00 | 0.00 | 51 | 1023.0 |
| 20260508083044 | 55 | 360 | 2.0 | 9.0 | 0.00 | 0.00 | 0.00 | 56 | 1022.9 |
| 20260508081529 | 54 | 360 | 2.0 | 10.0 | 0.00 | 0.00 | 0.00 | 59 | 1023.0 |
| 20260508080025 | 53 | 360 | 2.0 | 8.0 | 0.00 | 0.00 | 0.00 | 61 | 1022.9 |
| 20260508074521 | 52 | 360 | 1.0 | 10.0 | 0.00 | 0.00 | 0.00 | 64 | 1022.9 |
| 20260508073017 | 53 | 175 | 2.0 | 10.0 | 0.00 | 0.00 | 0.00 | 69 | 1022.8 |
| 20260508071513 | 52 | 360 | 0.0 | 7.0 | 0.00 | 0.00 | 0.00 | 72 | 1022.7 |
| 20260508070009 | 52 | 360 | 1.0 | 6.0 | 0.00 | 0.00 | 0.00 | 81 | 1022.4 |
| 20260508064520 | 51 | 100 | 0.0 | 4.0 | 0.00 | 0.00 | 0.00 | 87 | 1022.2 |
| 20260508063000 | 49 | 63 | 0.0 | 4.0 | 0.00 | 0.00 | 0.00 | 91 | 1022.0 |
| 20260508061549 | 48 | 324 | 0.0 | 0.0 | 0.00 | 0.00 | 0.00 | 93 | 1021.8 |
| 20260508060039 | 47 | 324 | 0.0 | 1.0 | 0.00 | 0.00 | 0.00 | 94 | 1021.7 |
| 20260508054534 | 45 | 324 | 0.0 | 0.0 | 0.00 | 0.00 | 0.00 | 94 | 1021.6 |
| 20260508053018 | 43 | 324 | 0.0 | 0.0 | 0.00 | 0.00 | 0.00 | 94 | 1021.6 |
| 20260508051522 | 40 | 324 | 0.0 | 0.0 | 0.00 | 0.00 | 0.00 | 94 | 1021.5 |
| 20260508050016 | 37 | 324 | 0.0 | 0.0 | 0.00 | 0.00 | 0.00 | 94 | 1021.4 |
| 20260508044503 | 35 | 324 | 0.0 | 0.0 | 0.00 | 0.00 | 0.00 | 93 | 1021.3 |
| 20260508043101 | 33 | 324 | 0.0 | 0.0 | 0.00 | 0.00 | 0.00 | 93 | 1021.3 |
| 20260508041556 | 32 | 324 | 0.0 | 0.0 | 0.00 | 0.00 | 0.00 | 93 | 1021.3 |
| 20260508034535 | 31 | 324 | 0.0 | 0.0 | 0.00 | 0.00 | 0.00 | 92 | 1021.1 |
| 20260508033034 | 31 | 324 | 0.0 | 0.0 | 0.00 | 0.00 | 0.00 | 92 | 1021.0 |
| 20260508031513 | 32 | 324 | 0.0 | 0.0 | 0.00 | 0.00 | 0.00 | 92 | 1021.0 |
| 20260508030011 | 32 | 324 | 0.0 | 0.0 | 0.00 | 0.00 | 0.00 | 92 | 1020.9 |
| 20260508024553 | 32 | 324 | 0.0 | 0.0 | 0.00 | 0.00 | 0.00 | 92 | 1020.8 |
| 20260508023050 | 32 | 324 | 0.0 | 0.0 | 0.00 | 0.00 | 0.00 | 92 | 1020.7 |
| 20260508021537 | 33 | 324 | 0.0 | 0.0 | 0.00 | 0.00 | 0.00 | 92 | 1020.7 |
| 20260508020035 | 33 | 324 | 0.0 | 0.0 | 0.00 | 0.00 | 0.00 | 92 | 1020.6 |
| 20260508014533 | 34 | 324 | 0.0 | 0.0 | 0.00 | 0.00 | 0.00 | 92 | 1020.5 |
| 20260508013032 | 34 | 324 | 0.0 | 0.0 | 0.00 | 0.00 | 0.00 | 92 | 1020.4 |
| 20260508011540 | 34 | 324 | 0.0 | 0.0 | 0.00 | 0.00 | 0.00 | 92 | 1020.3 |
| 20260508010037 | 34 | 324 | 0.0 | 0.0 | 0.00 | 0.00 | 0.00 | 92 | 1020.3 |
| 20260508004537 | 34 | 324 | 0.0 | 0.0 | 0.00 | 0.00 | 0.00 | 92 | 1020.2 |
| 20260508003028 | 35 | 324 | 0.0 | 0.0 | 0.00 | 0.00 | 0.00 | 91 | 1020.1 |
| 20260508001530 | 35 | 324 | 0.0 | 0.0 | 0.00 | 0.00 | 0.00 | 91 | 1020.2 |
| 20260508000019 | 35 | 324 | 0.0 | 0.0 | 0.00 | 0.00 | 0.00 | 91 | 1020.1 |
| 20260507234523 | 35 | 324 | 0.0 | 0.0 | 0.00 | 0.00 | 0.00 | 91 | 1020.0 |
| 20260507233023 | 35 | 324 | 0.0 | 0.0 | 0.00 | 0.00 | 0.00 | 91 | 1020.0 |
| 20260507231515 | 36 | 324 | 0.0 | 0.0 | 0.00 | 0.00 | 0.00 | 90 | 1019.9 |
| 20260507230013 | 36 | 324 | 0.0 | 0.0 | 0.00 | 0.00 | 0.00 | 90 | 1019.9 |
| 20260507224518 | 37 | 324 | 0.0 | 0.0 | 0.00 | 0.00 | 0.00 | 90 | 1019.8 |
| 20260507223013 | 37 | 324 | 0.0 | 0.0 | 0.00 | 0.00 | 0.00 | 90 | 1019.8 |
| 20260507221510 | 38 | 324 | 0.0 | 0.0 | 0.00 | 0.00 | 0.00 | 89 | 1019.8 |
| 20260507220057 | 38 | 324 | 0.0 | 0.0 | 0.00 | 0.00 | 0.00 | 88 | 1019.7 |
| 20260507214556 | 39 | 324 | 0.0 | 0.0 | 0.00 | 0.00 | 0.00 | 88 | 1019.7 |
| 20260507213056 | 40 | 324 | 0.0 | 0.0 | 0.00 | 0.00 | 0.00 | 87 | 1019.6 |
| 20260507211601 | 41 | 324 | 0.0 | 0.0 | 0.00 | 0.00 | 0.00 | 86 | 1019.5 |
| 20260507210052 | 42 | 324 | 0.0 | 0.0 | 0.00 | 0.00 | 0.00 | 85 | 1019.4 |